{"data":{"norad_id":56137,"intl_designator":"2023-046AX","name":"STARLINK-5090","alt_names":[],"object_type":"PAYLOAD","status":"ACTIVE","operator":null,"country":"US","launch_date":"2023-03-29","launch_site_code":"AFETR","launch_vehicle":null,"mission":null,"orbit_class":"UNKNOWN","rcs_meters":null,"size_class":null,"mass_kg":null,"dimensions":null,"purposes":["comms"],"wikipedia_slug":null,"has_3d_model":false,"image_url":null,"decayed_at":null,"tle_current":{"epoch":"2026-09-20T00:50:35.304576Z","epoch_age_seconds":148973,"freshness":"FRESH","line1":"1 56137U 23046AX  26263.03513084  .00001063  00000+0  48170-4 0  9993","line2":"2 56137  43.0020 129.3482 0001404 266.8132  93.2559 15.27576551191928","mean_motion":15.27576551,"eccentricity":0.0001404,"inclination_deg":43.002,"raan_deg":129.3482,"arg_perigee_deg":266.8132,"mean_anomaly_deg":93.2559,"bstar":4.817e-5,"rev_number":19192,"period_min":94.266961551441,"perigee_km":482.09611162798,"apogee_km":484.02273558373,"semimajor_km":6861.1964236059,"source":"CELESTRAK","updated_at":"2026-09-21T09:00:33.389157Z"}}}